N9ISN Weather Reports


Display with metric or nautical units.
time (UTC)temp
F
wind
direction
speed
MPH
gust
MPH
rain 1hr
in
rain 24hr
in
rain mn
in
humidity
%
barometer
mb
20260906143106 71 161 7.0 15.0 0.00 0.00 0.00 89 1020.2
20260906141545 69 161 3.0 6.0 0.00 0.00 0.00 94 1020.5
20260906140048 68 187 2.0 7.0 0.00 0.00 0.00 96 1020.5
20260906134551 67 145 5.0 8.0 0.00 0.00 0.00 97 1020.5
20260906133039 67 152 3.0 10.0 0.00 0.00 0.00 97 1020.1
20260906131536 66 147 3.0 8.0 0.00 0.00 0.00 97 1020.2
20260906130034 66 136 4.0 12.0 0.00 0.00 0.00 97 1019.8
20260906124541 66 133 6.0 11.0 0.00 0.00 0.00 97 1019.6
20260906123105 66 116 4.0 8.0 0.00 0.00 0.00 97 1019.8
20260906121532 66 99 2.0 7.0 0.00 0.00 0.00 97 1019.8
20260906120030 65 113 2.0 7.0 0.00 0.00 0.00 97 1019.5
20260906114530 65 125 3.0 7.0 0.00 0.00 0.00 97 1019.5
20260906113029 65 82 2.0 7.0 0.00 0.00 0.00 97 1019.4
20260906111531 65 82 2.0 5.0 0.00 0.00 0.00 97 1019.5
20260906110028 65 79 2.0 4.0 0.00 0.00 0.00 97 1019.6
20260906104531 65 74 3.0 6.0 0.00 0.00 0.00 97 1019.6
20260906103025 65 72 2.0 6.0 0.00 0.00 0.00 97 1019.3
20260906101523 65 49 3.0 5.0 0.00 0.00 0.00 96 1019.2
20260906100026 65 98 2.0 4.0 0.00 0.00 0.00 97 1018.8
20260906094522 64 143 1.0 3.0 0.00 0.00 0.00 96 1018.7
20260906093025 65 106 2.0 4.0 0.00 0.00 0.00 96 1018.8
20260906091520 65 73 2.0 4.0 0.00 0.00 0.00 96 1018.7
20260906090020 65 74 2.0 4.0 0.00 0.00 0.00 96 1018.8
20260906084520 65 59 3.0 5.0 0.00 0.00 0.00 96 1018.7
20260906083020 65 86 2.0 4.0 0.00 0.00 0.00 96 1018.4
20260906081516 65 100 1.0 3.0 0.00 0.00 0.00 96 1018.5
20260906080024 66 100 1.0 3.0 0.00 0.00 0.00 96 1018.6
20260906074515 66 86 2.0 3.0 0.00 0.00 0.00 96 1018.8
20260906073012 66 105 2.0 4.0 0.00 0.00 0.00 96 1018.8
20260906071510 66 113 1.0 3.0 0.00 0.00 0.00 96 1018.9
20260906070010 66 113 0.0 1.0 0.00 0.00 0.00 95 1019.0
20260906064509 66 113 0.0 2.0 0.00 0.00 0.00 95 1019.0
20260906063009 66 113 1.0 3.0 0.00 0.00 0.00 95 1019.1
20260906061508 66 89 2.0 4.0 0.00 0.00 0.00 95 1019.2
20260906060006 67 89 2.0 3.0 0.00 0.00 0.00 95 1019.1
20260906054506 67 158 0.0 2.0 0.00 0.00 0.00 95 1019.2
20260906053005 66 144 0.0 1.0 0.00 0.00 0.00 95 1019.2
20260906051505 66 144 0.0 2.0 0.00 0.00 0.00 95 1019.1
20260906050004 66 144 0.0 2.0 0.00 0.00 0.00 94 1019.1
20260906044502 67 155 1.0 2.0 0.00 0.00 0.00 95 1018.9
20260906043104 67 155 0.0 3.0 0.00 0.00 0.00 94 1018.8
20260906041602 67 155 1.0 2.0 0.00 0.00 0.00 94 1018.7
20260906040058 67 155 1.0 2.0 0.00 0.00 0.00 93 1018.6
20260906034557 67 155 1.0 3.0 0.00 0.00 0.00 93 1018.4
20260906033109 67 155 0.0 2.0 0.00 0.00 0.00 92 1018.3
20260906031555 67 155 1.0 3.0 0.00 0.00 0.00 92 1018.4
20260906030054 68 155 1.0 3.0 0.00 0.00 0.00 91 1018.4
20260906024556 68 155 1.0 3.0 0.00 0.00 0.00 90 1018.2
20260906023055 69 155 1.0 2.0 0.00 0.00 0.00 88 1017.9
20260906021552 70 155 1.0 3.0 0.00 0.00 0.00 88 1017.4
20260906020104 70 155 1.0 4.0 0.00 0.00 0.00 86 1017.2
20260906014552 71 117 0.0 4.0 0.00 0.00 0.00 85 1017.0
20260906013059 72 113 2.0 6.0 0.00 0.00 0.00 83 1016.4
20260906011601 73 105 3.0 8.0 0.00 0.00 0.00 82 1016.4
20260906010049 73 120 3.0 7.0 0.00 0.00 0.00 81 1016.4
20260906004555 74 88 3.0 9.0 0.00 0.00 0.00 80 1016.5
20260906003048 75 81 4.0 9.0 0.00 0.00 0.00 80 1016.6
20260906001550 76 105 4.0 8.0 0.00 0.00 0.00 78 1016.4
20260906000054 77 89 5.0 10.0 0.00 0.00 0.00 77 1016.4
20260905234548 78 113 5.0 10.0 0.00 0.00 0.00 76 1016.6
20260905233046 79 102 5.0 10.0 0.00 0.00 0.00 73 1016.4
20260905231545 80 101 5.0 10.0 0.00 0.00 0.00 72 1016.4
20260905230044 81 95 4.0 11.0 0.00 0.00 0.00 70 1016.5
20260905224550 82 105 4.0 8.0 0.00 0.00 0.00 68 1016.5
20260905223046 82 113 4.0 11.0 0.00 0.00 0.00 69 1016.6
20260905221542 82 104 1.0 4.0 0.00 0.00 0.00 69 1016.8
20260905220041 82 95 3.0 8.0 0.00 0.00 0.00 68 1016.9
20260905214538 81 76 2.0 4.0 0.00 0.00 0.00 69 1016.9
20260905213039 81 67 5.0 7.0 0.00 0.00 0.00 70 1017.1
20260905211544 79 38 0.0 3.0 0.00 0.00 0.00 74 1017.2
20260905210036 79 38 2.0 6.0 0.00 0.00 0.00 74 1017.2
20260905204538 80 213 0.0 3.0 0.00 0.00 0.00 71 1017.3
20260905203034 79 101 1.0 3.0 0.00 0.00 0.00 75 1017.5
20260905201532 79 101 0.0 3.0 0.00 0.00 0.00 74 1017.7
20260905200038 80 107 2.0 6.0 0.00 0.00 0.00 74 1017.7
20260905194531 80 214 1.0 6.0 0.00 0.00 0.00 75 1017.7
20260905193027 79 149 2.0 8.0 0.00 0.00 0.00 78 1017.7
20260905191527 78 149 2.0 7.0 0.00 0.00 0.00 78 1017.6
20260905190024 78 109 2.0 7.0 0.00 0.00 0.00 79 1017.6
20260905184542 77 120 2.0 4.0 0.00 0.00 0.00 81 1017.6
20260905183037 77 103 0.0 4.0 0.00 0.00 0.00 79 1017.7
20260905181522 77 135 0.0 4.0 0.00 0.00 0.00 80 1018.0
20260905180026 77 139 0.0 5.0 0.00 0.01 0.00 81 1018.0
20260905174516 76 121 1.0 7.0 0.00 0.01 0.00 86 1018.2
20260905173016 75 140 2.0 4.0 0.00 0.01 0.00 86 1018.2
20260905171512 75 124 2.0 6.0 0.00 0.01 0.00 85 1018.4
20260905170010 74 84 3.0 7.0 0.00 0.01 0.00 87 1018.2
20260905164507 73 136 3.0 7.0 0.00 0.01 0.00 89 1018.2
20260905163004 73 107 3.0 4.0 0.00 0.01 0.00 91 1018.4
20260905161559 72 161 0.0 2.0 0.00 0.01 0.00 91 1018.5
20260905160057 72 151 1.0 5.0 0.00 0.01 0.00 91 1018.4
20260905154614 72 88 3.0 8.0 0.00 0.01 0.00 93 1018.4
20260905153055 72 105 2.0 6.0 0.00 0.01 0.00 94 1018.2
20260905151551 71 97 3.0 7.0 0.00 0.01 0.00 95 1018.0
20260905150048 71 84 4.0 7.0 0.00 0.01 0.00 96 1017.8
20260905144547 70 61 5.0 8.0 0.00 0.01 0.00 97 1017.7